Fort Lewis, WA

5:39 AM PDT on October 24, 2017 (GMT -0700)
Gray Army Air Field

Weather History for KGRF - February, 2013

Change the Weather History Date:

Thursday, February 21, 2013

  Actual Average Record
Temperature  
Mean Temperature 40 °F -  
Max Temperature 42 °F 49 °F 60 °F (2002)
Min Temperature 37 °F 31 °F 28 °F (2008)
Degree Days  
Heating Degree Days 26    
Moisture  
Dew Point 39 °F    
Average Humidity 93    
Maximum Humidity 100    
Minimum Humidity 86    
Precipitation  
Precipitation 0.14 in - - ()
Sea Level Pressure  
Sea Level Pressure 30.06 in    
Wind  
Wind Speed 7 mph (SSE)    
Max Wind Speed 16 mph    
Max Gust Speed 23 mph    
Visibility 10 miles    
Events Rain    
Averages and records for this station are not official NWS values.
T = Trace of Precipitation, MM = Missing Value Source: NWS Daily Summary

Daily Weather History Graph

Daily Weather History Graph

Search for Another Location

Airport or City:

Trip Planner

Search our weather history database for the weather conditions in past years. The results will help you decide how hot, cold, wet, or windy it might be!

Date:

Astronomy

Feb. 21, 2013 Rise Set
Actual Time 7:04 AM PST 5:44 PM PST
Civil Twilight 6:33 AM PST 6:15 PM PST
Nautical Twilight 5:57 AM PST 6:50 PM PST
Astronomical Twilight 5:22 AM PST 7:26 PM PST
Moon 1:54 PM PST (2/21) 4:23 AM PST (2/21)
Length of Visible Light 11h 42m
Length of Day
10h 40m
Waxing Gibbous, 84% of the Moon is Illuminated
Feb 21
Waxing Gibbous
Feb 25
Full
Mar 4
Last Quarter
Mar 11
New
Mar 19
First Quarter

Hourly Weather History & Observations

Time (PST) Temp. Windchill Dew Point Humidity Pressure Visibility Wind Dir Wind Speed Gust Speed Precip Events Conditions
12:39 AM 37.4 °F - 37.4 °F 100% 30.01 in 9.0 mi Calm Calm - N/A   Light Drizzle
12:44 AM 37.4 °F - 37.4 °F 100% 30.02 in 9.0 mi Calm Calm - N/A   Light Drizzle
12:49 AM 37.4 °F - 37.4 °F 100% 30.02 in 10.0 mi Calm Calm - N/A   Overcast
12:58 AM 37.9 °F - 37.8 °F 99% 30.04 in 10.0 mi Calm Calm - 0.00 in   Overcast
1:13 AM 37.4 °F - 37.4 °F 100% 30.03 in 10.0 mi Calm Calm - N/A   Overcast
1:34 AM 39.2 °F 35.9 °F 39.2 °F 100% 30.03 in 10.0 mi SE 4.6 mph - N/A Rain Light Rain
1:51 AM 39.2 °F 35.9 °F 39.2 °F 100% 30.04 in 10.0 mi SE 4.6 mph - N/A   Overcast
1:58 AM 39.2 °F 35.9 °F 38.8 °F 99% 30.06 in 10.0 mi SE 4.6 mph - 0.00 in   Mostly Cloudy
2:23 AM 39.2 °F 37.0 °F 39.2 °F 100% 30.05 in 9.0 mi SE 3.5 mph - N/A   Mostly Cloudy
2:43 AM 39.2 °F 35.0 °F 39.2 °F 100% 30.04 in 10.0 mi SSE 5.8 mph - N/A   Overcast
2:58 AM 39.7 °F 36.5 °F 39.0 °F 97% 30.06 in 9.0 mi SSE 4.6 mph - N/A   Overcast
3:08 AM 39.2 °F 33.6 °F 39.2 °F 100% 30.03 in 10.0 mi SSE 8.1 mph - N/A   Overcast
3:43 AM 39.2 °F 33.6 °F 39.2 °F 100% 30.04 in 10.0 mi SSE 8.1 mph - N/A   Overcast
3:58 AM 39.9 °F 34.5 °F 39.4 °F 98% 30.06 in 10.0 mi SSE 8.1 mph - N/A   Overcast
4:18 AM 39.2 °F 34.2 °F 39.2 °F 100% 30.05 in 10.0 mi SSE 6.9 mph - N/A   Overcast
4:23 AM 39.2 °F 35.0 °F 39.2 °F 100% 30.05 in 10.0 mi SSE 5.8 mph - N/A   Overcast
4:28 AM 39.2 °F 33.6 °F 39.2 °F 100% 30.05 in 10.0 mi SSE 8.1 mph - N/A   Overcast
4:33 AM 39.2 °F 33.6 °F 39.2 °F 100% 30.05 in 10.0 mi SSE 8.1 mph - N/A   Mostly Cloudy
4:48 AM 39.2 °F 34.2 °F 37.4 °F 93% 30.05 in 10.0 mi SSE 6.9 mph - N/A   Overcast
4:58 AM 39.6 °F 34.7 °F 37.9 °F 94% 30.07 in 10.0 mi SSE 6.9 mph - 0.01 in   Overcast
5:03 AM 39.2 °F 33.6 °F 37.4 °F 93% 30.05 in 10.0 mi SSE 8.1 mph - N/A   Overcast
5:28 AM 39.2 °F 34.2 °F 37.4 °F 93% 30.06 in 10.0 mi SSE 6.9 mph - N/A   Overcast
5:58 AM 39.9 °F 35.1 °F 37.9 °F 93% 30.08 in 10.0 mi SSE 6.9 mph - N/A   Overcast
6:18 AM 39.2 °F 33.6 °F 37.4 °F 93% 30.07 in 10.0 mi SSE 8.1 mph - N/A   Overcast
6:53 AM 41.0 °F 35.8 °F 37.4 °F 87% 30.07 in 10.0 mi SSE 8.1 mph - N/A   Overcast
6:58 AM 40.3 °F 34.9 °F 37.8 °F 91% 30.09 in 10.0 mi SSE 8.1 mph - N/A   Overcast
7:00 AM 41.0 °F 35.2 °F 37.4 °F 87% 30.07 in 10.0 mi SSE 9.2 mph - N/A   Light Drizzle
7:09 AM 41.0 °F 35.8 °F 37.4 °F 87% 30.07 in 10.0 mi SSE 8.1 mph - N/A   Overcast
7:14 AM 41.0 °F 35.8 °F 37.4 °F 87% 30.08 in 10.0 mi SSE 8.1 mph - N/A   Overcast
7:19 AM 41.0 °F 35.8 °F 37.4 °F 87% 30.08 in 10.0 mi SSE 8.1 mph - N/A   Overcast
7:58 AM 39.9 °F 33.9 °F 37.2 °F 90% 30.09 in 10.0 mi SSE 9.2 mph - 0.00 in   Mostly Cloudy
8:13 AM 39.2 °F 33.6 °F 37.4 °F 93% 30.08 in 10.0 mi SSE 8.1 mph - N/A   Overcast
8:49 AM 41.0 °F 36.4 °F 37.4 °F 87% 30.08 in 10.0 mi SSE 6.9 mph - N/A   Overcast
8:56 AM 41.0 °F 36.4 °F 37.4 °F 87% 30.08 in 10.0 mi SSE 6.9 mph - N/A   Overcast
8:59 AM 40.6 °F 35.4 °F 37.6 °F 89% 30.10 in 10.0 mi SSE 8.1 mph - 0.00 in   Overcast
9:10 AM 41.0 °F 37.1 °F 37.4 °F 87% 30.09 in 10.0 mi SSE 5.8 mph - N/A   Light Drizzle
9:30 AM 41.0 °F 37.1 °F 37.4 °F 87% 30.09 in 7.0 mi SSE 5.8 mph - N/A Rain Light Rain
9:58 AM 39.9 °F 32.5 °F 38.1 °F 93% 30.11 in 10.0 mi SSE 12.7 mph - 0.03 in   Light Drizzle
10:01 AM 39.2 °F 32.5 °F 37.4 °F 93% 30.09 in 10.0 mi SSE 10.4 mph - N/A   Overcast
10:11 AM 39.2 °F 31.6 °F 37.4 °F 93% 30.09 in 10.0 mi SE 12.7 mph - N/A   Overcast
10:16 AM 39.2 °F 32.5 °F 37.4 °F 93% 30.09 in 10.0 mi SE 10.4 mph - N/A   Overcast
10:21 AM 39.2 °F 32.5 °F 37.4 °F 93% 30.09 in 10.0 mi SSE 10.4 mph - N/A   Mostly Cloudy
10:31 AM 39.2 °F 31.6 °F 37.4 °F 93% 30.09 in 10.0 mi SSE 12.7 mph - N/A   Overcast
10:46 AM 39.2 °F 31.6 °F 39.2 °F 100% 30.09 in 10.0 mi SSE 12.7 mph - N/A   Light Drizzle
10:56 AM 39.2 °F 33.6 °F 39.2 °F 100% 30.09 in 10.0 mi SSE 8.1 mph - N/A Rain Light Rain
10:59 AM 39.9 °F 33.9 °F 38.3 °F 94% 30.11 in 10.0 mi SSE 9.2 mph - 0.02 in Rain Light Rain
11:04 AM 39.2 °F 32.5 °F 39.2 °F 100% 30.09 in 10.0 mi SSE 10.4 mph - N/A Rain Light Rain
11:13 AM 39.2 °F 31.2 °F 37.4 °F 93% 30.09 in 9.0 mi SSE 13.8 mph - N/A Rain Light Rain
11:26 AM 39.2 °F 31.6 °F 37.4 °F 93% 30.09 in 10.0 mi SSE 12.7 mph - N/A Rain Light Rain
11:31 AM 39.2 °F 31.6 °F 37.4 °F 93% 30.09 in 10.0 mi SSE 12.7 mph - N/A Rain Light Rain
11:35 AM 39.2 °F 31.6 °F 37.4 °F 93% 30.08 in 10.0 mi SSE 12.7 mph - N/A   Mostly Cloudy
11:50 AM 41.0 °F 32.8 °F 39.2 °F 93% 30.07 in 10.0 mi SSE 16.1 mph - N/A   Mostly Cloudy
11:58 AM 40.3 °F 32.2 °F 39.0 °F 95% 30.09 in 10.0 mi SE 15.0 mph - 0.04 in   Scattered Clouds
12:58 PM 41.9 °F 35.0 °F 39.6 °F 91% 30.06 in 10.0 mi SSE 12.7 mph - N/A   Mostly Cloudy
1:08 PM 42.8 °F 36.6 °F 39.2 °F 87% 30.04 in 10.0 mi SSE 11.5 mph - N/A   Mostly Cloudy
1:13 PM 42.8 °F 38.0 °F 39.2 °F 87% 30.04 in 10.0 mi SE 8.1 mph - N/A   Mostly Cloudy
1:18 PM 42.8 °F 36.2 °F 39.2 °F 87% 30.03 in 10.0 mi SSE 12.7 mph 19.6 mph N/A   Mostly Cloudy
1:28 PM 42.8 °F 35.8 °F 39.2 °F 87% 30.03 in 10.0 mi SSE 13.8 mph 21.9 mph N/A   Mostly Cloudy
1:51 PM 42.8 °F 36.2 °F 39.2 °F 87% 30.03 in 10.0 mi SSE 12.7 mph 21.9 mph N/A   Partly Cloudy
1:58 PM 42.4 °F 36.1 °F 38.7 °F 86% 30.05 in 10.0 mi SSE 11.5 mph 21.9 mph 0.00 in   Scattered Clouds
1:59 PM 42.8 °F 37.5 °F 39.2 °F 87% 30.03 in 10.0 mi SSE 9.2 mph 17.3 mph N/A   Scattered Clouds
2:13 PM 42.8 °F 37.0 °F 39.2 °F 87% 30.03 in 10.0 mi SSE 10.4 mph 18.4 mph N/A Rain Light Rain
2:18 PM 42.8 °F 36.2 °F 39.2 °F 87% 30.03 in 10.0 mi SSE 12.7 mph 23.0 mph N/A Rain Light Rain
2:33 PM 42.8 °F 35.8 °F 39.2 °F 87% 30.03 in 10.0 mi SSE 13.8 mph 20.7 mph N/A   Overcast
2:53 PM 42.8 °F 36.2 °F 39.2 °F 87% 30.03 in 10.0 mi SSE 12.7 mph 20.7 mph N/A Rain Light Rain
2:58 PM 41.9 °F 35.4 °F 39.7 °F 92% 30.05 in 9.0 mi SSE 11.5 mph 20.7 mph 0.01 in Rain Light Rain
3:02 PM 42.8 °F 36.2 °F 39.2 °F 87% 30.03 in 9.0 mi SSE 12.7 mph 17.3 mph N/A   Overcast
3:32 PM 42.8 °F 35.4 °F 39.2 °F 87% 30.03 in 10.0 mi SSE 15.0 mph 23.0 mph N/A   Overcast
3:58 PM 41.9 °F 35.0 °F 39.6 °F 91% 30.06 in 10.0 mi SSE 12.7 mph - 0.00 in   Mostly Cloudy
4:03 PM 42.8 °F 35.1 °F 39.2 °F 87% 30.04 in 10.0 mi SSE 16.1 mph - N/A   Mostly Cloudy
4:32 PM 42.8 °F 36.6 °F 39.2 °F 87% 30.04 in 10.0 mi SSE 11.5 mph - N/A Rain Light Rain
4:42 PM 42.8 °F 37.0 °F 39.2 °F 87% 30.04 in 10.0 mi SSE 10.4 mph - N/A   Mostly Cloudy
4:58 PM 42.1 °F 35.2 °F 39.7 °F 91% 30.06 in 10.0 mi SSE 12.7 mph - 0.01 in   Overcast
5:03 PM 42.8 °F 36.2 °F 39.2 °F 87% 30.04 in 10.0 mi SSE 12.7 mph - N/A   Overcast
5:13 PM 42.8 °F 36.2 °F 39.2 °F 87% 30.04 in 10.0 mi SSE 12.7 mph - N/A   Overcast
5:33 PM 41.0 °F 34.7 °F 41.0 °F 100% 30.05 in 10.0 mi SSE 10.4 mph - N/A   Overcast
5:58 PM 41.5 °F 34.2 °F 40.1 °F 95% 30.08 in 10.0 mi SSE 13.8 mph - N/A   Overcast
6:25 PM 41.0 °F 34.7 °F 41.0 °F 100% 30.07 in 10.0 mi SSE 10.4 mph - N/A Rain Light Rain
6:52 PM 41.0 °F 36.4 °F 41.0 °F 100% 30.07 in 10.0 mi SSE 6.9 mph - N/A   Overcast
6:58 PM 41.4 °F 36.2 °F 40.6 °F 97% 30.08 in 10.0 mi SSE 8.1 mph - 0.02 in   Overcast
7:33 PM 41.0 °F 35.8 °F 41.0 °F 100% 30.06 in 10.0 mi SSE 8.1 mph - N/A   Overcast
7:38 PM 41.0 °F 35.8 °F 41.0 °F 100% 30.07 in 10.0 mi SSE 8.1 mph - N/A   Overcast
7:53 PM 41.0 °F 35.2 °F 39.2 °F 93% 30.07 in 10.0 mi SSE 9.2 mph - N/A   Overcast
7:58 PM 41.5 °F 35.9 °F 39.9 °F 94% 30.09 in 10.0 mi SSE 9.2 mph - N/A   Overcast
8:08 PM 41.0 °F 37.1 °F 39.2 °F 93% 30.07 in 10.0 mi SE 5.8 mph - N/A   Overcast
8:13 PM 41.0 °F 36.4 °F 39.2 °F 93% 30.07 in 10.0 mi SE 6.9 mph - N/A   Overcast
8:58 PM 41.4 °F 36.2 °F 40.1 °F 95% 30.10 in 10.0 mi SSE 8.1 mph - N/A   Mostly Cloudy
9:58 PM 41.4 °F 36.8 °F 40.1 °F 95% 30.12 in 10.0 mi SSE 6.9 mph - N/A   Scattered Clouds
10:08 PM 41.0 °F 35.8 °F 39.2 °F 93% 30.09 in 10.0 mi SSE 8.1 mph - N/A   Mostly Cloudy
10:13 PM 41.0 °F 35.8 °F 39.2 °F 93% 30.09 in 10.0 mi SSE 8.1 mph - N/A   Scattered Clouds
10:23 PM 41.0 °F 35.8 °F 39.2 °F 93% 30.09 in 10.0 mi SSE 8.1 mph - N/A   Mostly Cloudy
10:33 PM 41.0 °F 35.2 °F 39.2 °F 93% 30.09 in 10.0 mi SSE 9.2 mph - N/A   Mostly Cloudy
10:58 PM 41.0 °F 35.8 °F 39.7 °F 95% 30.11 in 10.0 mi SSE 8.1 mph - N/A   Clear
11:48 PM 41.0 °F 35.8 °F 39.2 °F 93% 30.08 in 10.0 mi SSE 8.1 mph - N/A   Mostly Cloudy
11:53 PM 41.0 °F 35.2 °F 39.2 °F 93% 30.08 in 10.0 mi SSE 9.2 mph - N/A   Mostly Cloudy
11:58 PM 41.2 °F 36.0 °F 39.9 °F 95% 30.10 in 10.0 mi SSE 8.1 mph - N/A   Mostly Cloudy